Simultaneous Nadir Overpasses (SNOs) Predictions

Prediction of SNOs between METOP-B and TERRA Satellite Orbit:

Table of predicted SNOs for the next 14.0 days since TLE Epoch: 9/12/2020
Index Date (METOP-B) Time (METOP-B) Lat,Lon (METOP-B) SZA (METOP-B ) Date (TERRA) Time (TERRA) Lat,Lon (TERRA) SZA (TERRA ) Distance(km) Time Diff (sec)
1 09/14/2020 04:23:41 81.33, 161.29 80.99 09/14/2020 04:24:44 81.32, 161.40 81.03 1.98 63
2 09/14/2020 05:14:20 -81.33, -30.72 98.92 09/14/2020 05:14:10 -81.33, -30.72 98.92 0.15 10
3 09/16/2020 23:57:59 81.33,-131.75 82.17 09/16/2020 23:58:57 81.33,-131.90 82.18 2.53 58
4 09/17/2020 00:48:40 -81.33, 35.51 97.83 09/17/2020 00:48:24 -81.33, 35.63 97.83 2.07 16
5 09/19/2020 19:32:20 81.33, -65.58 83.25 09/19/2020 19:33:12 81.33, -65.61 83.27 0.55 52
6 09/19/2020 20:22:59 -81.34, 102.51 96.65 09/19/2020 20:22:38 -81.34, 102.34 96.68 2.92 21
7 09/22/2020 15:06:40 81.33, 0.98 84.38 09/22/2020 15:07:26 81.34, 1.05 84.42 1.35 46
8 09/22/2020 15:57:20 -81.34, 168.72 95.56 09/22/2020 15:56:53 -81.34, 168.64 95.58 1.34 27
9 09/25/2020 10:41:00 81.33, 67.14 85.47 09/25/2020 10:41:40 81.33, 67.29 85.51 2.60 40
